ACA342 KSYR-CYYZ

Flight info

Callsign ACA342
Flight time N/A
Altitude 32000
Route SYR DCT DINES DCT WOZEE LINNG3
Aircraft A319/M-SDE3FGHIRWY/LB1

Departure

Time 2026-04-27 18:48
Airport Syracuse Hancock International Airport (KSYR)

Arrival

Time N/A
Airport Toronto Pearson International Airport (CYYZ)
Time Latitude Longitude Altitude Speed Heading
2026-04-27 18:04 43.11340 -76.10893 417 ft 0 kts 230°
2026-04-27 18:41 43.11343 -76.10889 424 ft 3 kts 238°
2026-04-27 18:41 43.11354 -76.10869 424 ft 3 kts 227°
2026-04-27 18:41 43.11371 -76.10848 422 ft 3 kts 211°
2026-04-27 18:42 43.11390 -76.10836 422 ft 3 kts 187°
2026-04-27 18:42 43.11397 -76.10835 417 ft 2 kts 181°
2026-04-27 18:42 43.11398 -76.10835 421 ft 0 kts 181°
2026-04-27 18:44 43.11392 -76.10817 422 ft 4 kts 93°
2026-04-27 18:44 43.11409 -76.10760 424 ft 9 kts 58°
2026-04-27 18:44 43.11482 -76.10745 418 ft 13 kts 357°
2026-04-27 18:44 43.11571 -76.10759 419 ft 13 kts 343°
2026-04-27 18:45 43.11638 -76.10842 417 ft 13 kts 316°
2026-04-27 18:45 43.11708 -76.10935 418 ft 15 kts 316°
2026-04-27 18:45 43.11779 -76.11039 416 ft 15 kts 313°
2026-04-27 18:45 43.11856 -76.11148 425 ft 16 kts 314°
2026-04-27 18:46 43.11938 -76.11264 416 ft 17 kts 314°
2026-04-27 18:46 43.12021 -76.11371 417 ft 15 kts 341°
2026-04-27 18:46 43.12080 -76.11326 422 ft 7 kts 46°
2026-04-27 18:46 43.12106 -76.11289 421 ft 5 kts 45°
2026-04-27 18:47 43.12099 -76.11245 426 ft 6 kts 135°
2026-04-27 18:47 43.11990 -76.11091 430 ft 62 kts 134°
2026-04-27 18:47 43.11460 -76.10344 426 ft 151 kts 134°
2026-04-27 18:47 43.10951 -76.09012 911 ft 173 kts 88°
2026-04-27 18:48 43.11479 -76.07520 1565 ft 190 kts 37°
2026-04-27 18:48 43.12787 -76.07049 2258 ft 210 kts 350°
2026-04-27 18:48 43.14212 -76.07889 2959 ft 239 kts 322°